Simultaneous Nadir Overpasses (SNOs) Predictions

Prediction of SNOs between AQUA and NOAA-19 Satellite Orbit:

Table of predicted SNOs for the next 14.0 days since TLE Epoch: 5/1/2021
Index Date (AQUA) Time (AQUA) Lat,Lon (AQUA) SZA (AQUA ) Date (NOAA-19) Time (NOAA-19) Lat,Lon (NOAA-19) SZA (NOAA-19 ) Distance(km) Time Diff (sec)
1 05/02/2021 06:40:59 -78.91,-123.41 115.72 05/02/2021 06:40:03 -78.91,-123.44 115.70 0.58 56
2 05/02/2021 07:30:27 78.95, 43.97 64.33 05/02/2021 07:31:03 78.94, 44.08 64.30 2.46 36
3 05/04/2021 13:04:09 -78.92, 140.73 116.37 05/04/2021 13:04:13 -78.93, 140.81 116.37 2.41 4
4 05/06/2021 18:37:52 78.91,-122.63 62.98 05/06/2021 18:37:26 78.92,-122.54 63.00 2.25 26
5 05/06/2021 19:27:19 -78.93, 44.86 116.99 05/06/2021 19:28:24 -78.93, 44.80 117.02 1.49 65
6 05/09/2021 00:11:34 -78.87, -25.86 117.67 05/09/2021 00:10:35 -78.91, -25.82 117.63 3.72 59
7 05/09/2021 01:01:02 78.93, 141.45 62.40 05/09/2021 01:01:37 78.92, 141.56 62.37 2.51 35
8 05/11/2021 06:34:44 -78.90,-121.79 118.23 05/11/2021 06:34:46 -78.90,-121.86 118.23 1.44 2
9 05/13/2021 12:08:26 78.87, -25.06 61.18 05/13/2021 12:08:00 78.89, -25.16 61.21 2.84 26



Historial Predications of SNOs between AQUA and NOAA-19
